CAPE
1706 1528 1632 1906 1883 1851 1737 1726 1670 1695 1828 1876 1834 1850 1790 1750 1690 1617 1529 1442 1336 1138 1051 1090 1017 900 796 669 1044 973 826 778 687 668 672 1025 990 909 982 1282 1181 1124 1130 1134 1155 1176 1478 1477 1313 1405 1530 1303 1313 1377 1323 1215 1344 1259 1284 1265 1420 1371 1270 1215 1259 1212 1307 1281 1296 1159 1256 1278 1272 1216 1150 1012 1125 1029 888 807 758 611 531 278 234
1911 1428 1650 1546 1826 1841 1725 1678 1567 1703 1761 1751 1764 1720 1669 1604 1552 1470 1407 1324 1169 1082 1134 1070 1000 888 724 786 1133 905 818 749 763 817 927 1062 1116 988 1241 1292 1192 1104 1164 1138 1238 1177 1404 1402 1415 1342 1301 1339 1264 1244 1311 1308 1328 1223 1256 1416 1325 1289 1281 1241 1305 1210 1292 1317 1230 1180 1144 1210 1108 1088 1060 897 782 679 471 633 662 462 444 301 501
1675 1447 1685 1590 1839 1830 1691 1540 1544 1546 1519 1629 1642 1690 1597 1438 1415 1363 1337 1141 1111 1041 1145 1093 977 820 690 852 995 814 1045 1131 1169 1176 1113 1102 1046 1262 1338 1360 1392 1300 1236 1274 1439 1426 1191 1350 1239 1280 1326 1293 1337 1294 1269 1247 1196 1123 1403 1372 1236 1200 1105 1061 1159 1139 1179 1293 1297 1238 1026 918 900 933 881 707 574 499 496 469 377 262 229 378 481
1750 1793 1692 1732 1758 1793 1646 1618 1456 1410 1378 1510 1486 1421 1395 1403 1345 1198 1093 1064 996 1059 1024 916 890 842 916 989 995 744 976 1420 1353 1272 1256 1215 1302 1388 1472 1575 1499 1475 1196 1210 1244 1357 1430 1274 1294 1377 1415 1233 1343 1274 1253 1234 1192 1189 1153 1321 1268 1139 1003 947 979 1234 1444 1524 1402 924 1026 964 765 591 637 626 510 478 480 304 190 183 223 283 306
1988 1424 1692 1509 1562 1677 1667 1530 1477 1421 1324 1230 1291 1244 1229 1270 1134 1094 1015 979 907 976 909 859 847 754 884 919 620 604 713 1374 1612 1416 1551 1538 1480 1488 1479 1566 1575 1597 1462 1254 1240 1290 1219 1168 1178 1265 1219 1235 1202 1112 1237 1295 1282 1252 1210 1181 1142 1025 977 960 1059 1072 1221 1319 1286 864 591 514 681 317 395 456 403 416 468 271 196 251 285 262 678
2080 1854 1494 1331 1260 1465 1613 1609 1464 1358 1278 1120 1051 1060 1112 1088 1028 970 1003 902 870 898 820 790 825 796 753 706 489 597 601 1089 1507 1458 1568 1653 1652 1590 1626 1571 1624 1609 1568 1526 1482 1231 1260 1197 1216 1302 1397 1366 1306 1188 1172 1092 1181 1113 950 853 836 813 856 812 661 672 632 542 1121 209 149 126 88 168 556 833 682 619 529 440 386 227 147 943 938
2064 1550 1522 1378 1291 1146 1505 1482 1333 1249 1178 1123 1108 1160 1098 983 935 1009 971 908 838 835 771 753 713 731 651 667 577 510 652 908 1234 1662 1719 1721 1674 1745 1703 1708 1636 1678 1624 1559 1494 1348 1318 1353 1359 1331 1338 1438 1347 1314 1169 1134 992 850 761 727 674 659 621 571 454 377 492 928 373 184 145 91 59 122 784 718 634 436 377 552 782 752 562 517 542
2015 1733 1448 1305 1337 1437 1540 1388 1305 1223 1175 1165 1130 1097 988 939 953 1034 1034 990 932 762 760 670 725 714 747 640 597 510 621 695 947 1232 1731 1607 1656 1804 1764 1642 1623 1570 1589 1481 1388 1222 1191 1276 1224 1260 1382 1466 1271 1277 1139 1013 757 691 653 643 556 488 449 377 210 151 216 278 297 285 180 127 152 122 334 414 423 349 206 460 486 424 360 304 280
2070 1637 1553 1154 1349 1278 1527 1440 1380 1186 1147 1081 1066 1007 959 958 1001 1078 1042 999 882 796 767 775 763 707 750 654 565 587 576 635 690 982 1515 1744 1785 1710 1658 1573 1484 1387 1460 1267 1010 960 874 1036 1254 1382 1393 1336 1327 1184 1131 946 739 629 606 561 498 363 209 164 198 181 90 50 22 140 139 128 110 118 276 135 65 117 136 263 287 133 98 137 126
1786 1814 1595 1465 1513 1653 1569 1462 1374 1280 1174 1009 1092 1069 1086 1077 1074 1065 1028 899 813 805 849 839 763 759 683 744 664 553 675 651 615 1060 1754 1946 1859 1759 1790 1640 1231 1223 1072 954 853 965 1256 1375 1555 1632 1509 1340 1351 1220 1172 961 675 605 517 440 369 298 191 136 239 187 224 304 350 374 232 92 30 36 32 404 699 894 853 1074 1119 707 559 327 241
2005 1898 1403 1563 1370 1620 1516 1522 1417 1315 1107 1051 966 1079 1146 1088 1092 962 856 842 846 892 956 914 853 837 781 653 536 530 582 704 771 1258 1521 1486 1398 1448 1576 1516 1254 1140 1114 923 778 981 1328 1538 1486 1605 1513 1332 1153 1006 1062 861 696 628 480 400 387 311 262 280 859 226 141 48 156 223 124 205 188 181 814 842 873 880 861 870 944 973 910 923 868
2004 1999 1924 1699 1746 1549 1570 1604 1499 1341 1093 1118 1285 1209 1180 1138 1107 1088 943 897 1052 891 1020 1068 1014 962 914 857 842 766 742 777 1051 1290 1440 1375 1226 1186 1326 1276 1215 1156 1102 888 802 1071 1446 1470 1350 1422 1337 1258 1090 924 909 852 613 579 481 398 370 265 166 316 264 289 352 366 399 373 300 296 465 666 884 961 952 995 932 970 1006 965 992 907 684
1954 1599 1873 2030 1352 1673 1678 1626 1548 1366 1272 1199 1382 1263 1247 1196 1163 1195 1209 1331 1304 1213 1318 1349 1329 1324 1269 1172 1115 1008 961 1358 1661 1554 1517 1553 1384 1331 1342 1232 1172 1114 1127 849 880 1160 1424 1418 1411 1408 1338 1259 1149 1057 923 684 541 490 415 360 335 254 229 707 289 337 321 331 423 388 475 742 1021 986 960 943 872 837 798 739 755 761 782 570 354
1696 1880 2147 1736 1346 1666 1715 1644 1499 1471 1421 1415 1433 1342 1381 1356 1318 1463 1471 1501 1465 1405 1434 1514 1486 1472 1775 2090 2033 1807 1742 1577 1512 1437 1325 1334 1357 1308 1198 1154 1113 1199 1044 923 967 1219 1427 1389 1457 1536 1350 1259 1120 960 796 644 532 472 389 386 314 230 337 289 336 510 539 514 539 472 462 720 657 662 536 558 616 547 562 499 504 546 528 499 246
2124 2011 2419 1900 1556 1064 1820 1628 1554 1526 1469 1498 1460 1496 1497 1462 1556 1612 1619 1637 1638 1471 1510 1568 1572 1637 2084 2000 1864 1722 1628 1587 1415 1236 1239 1296 1248 1188 1124 1111 1189 1176 1070 1057 1133 1318 1485 1447 1395 1443 1319 1122 999 880 741 597 477 416 302 232 239 265 415 380 384 451 410 399 431 365 360 340 406 357 305 335 305 272 226 332 372 363 358 333 280
1996 2627 2409 1542 1716 1580 1581 1691 1618 1570 1526 1545 1584 1583 1554 1589 1643 1667 1638 1653 1722 1622 1545 1569 1544 1694 1950 1932 1749 1640 1581 1745 1680 1220 1134 1349 1382 1235 1201 1166 1150 1118 1115 1027 1210 1494 1672 1581 1352 1348 1236 1064 988 777 661 591 526 434 351 226 148 122 283 290 429 450 432 418 462 484 363 238 510 220 193 167 268 218 204 190 176 186 156 144 156
2405 2370 2115 2125 1924 1648 1676 1603 1334 1720 1593 1625 1654 1610 1559 1616 1651 1671 1619 1683 1723 1700 1702 1604 1584 1791 1806 1813 1676 1612 1656 1942 1752 1691 1448 1394 1324 1238 1188 1071 986 1160 1111 1142 1338 1598 1846 1710 1326 1247 1162 1048 843 769 688 588 439 350 316 289 217 158 203 304 548 696 674 535 496 469 324 247 300 333 291 242 219 138 101 108 117 117 104 108 55
2410 2267 2168 2091 1987 1596 1766 1679 1558 1542 1414 1544 1707 1658 1667 1641 1670 1740 1702 1663 1723 1764 1798 1731 1726 1850 1783 1699 1662 1701 2020 1913 1829 1792 1630 1465 1308 1221 1089 1077 1104 1194 1064 1209 1471 1657 1746 1748 1433 1206 1172 1084 886 745 671 529 392 304 265 269 258 211 262 338 666 571 567 561 544 510 412 307 296 250 198 164 162 153 170 126 91 68 56 58 81
2441 2467 1944 2497 2280 2230 2041 1918 1659 1614 1563 1379 1231 1401 1795 1687 1778 1833 1811 1742 1675 1754 1873 1902 1915 1827 1686 1730 1598 1770 2036 1946 1969 1809 1618 1467 1471 1137 1151 1116 1042 1155 1076 1312 1488 1835 1964 1832 1491 1283 1211 988 891 769 604 451 401 302 243 223 221 238 263 397 540 504 623 660 547 460 285 400 241 186 160 134 117 70 66 66 124 167 111 69 74
1771 2228 2269 1891 1752 2542 2072 1941 1808 1675 1793 1590 1626 1286 1874 1890 1844 1879 1927 1839 1752 1757 1916 2048 1906 1735 1542 1557 1550 1823 2000 2094 1940 1707 1695 1588 1388 917 1252 1129 1006 1215 1159 1501 1613 1703 1936 1877 1546 1317 1170 1011 852 725 568 493 386 320 224 204 278 409 633 548 521 564 707 630 438 359 359 358 153 121 137 113 104 99 104 85 52 8 10 46 95
1770 1491 2194 1920 1970 1484 2110 2055 2004 2228 2081 2080 1826 1817 1646 1864 1884 1986 2009 1998 1818 1790 1914 1986 1909 1553 1564 1569 1604 1854 1633 1721 1981 1624 1680 1364 1725 1442 1348 1072 1232 1265 1305 1468 1637 1776 1997 1822 1472 1354 1156 945 880 715 560 475 397 314 273 249 360 830 634 672 599 532 552 594 458 211 315 197 99 80 105 84 37 34 28 26 27 58 61 78 42
2305 2184 1757 2070 2225 1592 1799 2125 2186 2137 2264 2220 1920 1867 1889 1498 1363 1411 1020 1668 1844 1828 1763 1497 1722 1511 1500 1382 1757 2098 1900 1671 1588 1749 1639 1646 1367 1384 1243 1199 1116 1210 1351 1404 1586 1738 1774 1732 1436 1279 1099 936 718 602 544 471 455 413 329 284 583 485 795 710 641 438 511 560 382 177 128 92 56 69 71 90 84 76 45 32 35 30 36 18 10
1772 2217 2288 2361 2184 2101 1384 1448 1490 2277 2449 2342 2031 2122 1488 1732 1737 1373 1361 1209 1606 1701 1252 1372 1414 1124 1240 1436 2050 1920 2213 2201 2102 1482 1428 1306 1354 1443 1270 1096 1140 1200 1371 1374 1412 1527 1654 1539 1380 1181 970 780 816 790 593 479 502 424 284 564 459 471 584 615 499 560 519 360 234 99 69 64 46 47 46 34 35 11 23 25 26 26 11 6 2
1749 1420 1527 2119 2409 2260 2414 2468 2364 2576 2509 2239 2193 2214 2125 2145 1883 1817 1635 1366 1402 1832 1618 1161 1123 1159 1415 1995 1405 1544 1610 2330 1760 1466 1640 1482 1510 1388 1250 980 1047 1034 1056 1394 1402 1455 1333 1293 1190 1019 892 758 1324 1034 903 606 339 265 587 633 386 346 515 552 461 443 448 386 200 91 82 62 45 49 55 66 60 52 34 11 20 8 3 1 0
1479 1823 1815 1386 1532 2605 2711 2628 2478 2187 1689 2352 2311 1989 1863 1450 1998 1788 1622 1594 1596 1908 1519 1789 1570 1669 1741 1536 1282 1403 1308 1394 1061 1920 1721 1555 1282 1164 1187 878 553 645 895 736 789 1326 1365 1275 1099 697 803 1165 1338 1323 1086 613 487 471 522 528 401 506 449 561 502 459 521 394 205 85 78 68 48 60 48 41 24 18 17 14 11 2 4 4 2
1546 1591 1347 1740 1702 1661 2211 2360 2594 2559 2466 2347 2310 2039 2271 2019 1943 1939 1772 1768 1813 1743 1664 1956 1892 2201 2093 1296 1411 1371 1860 1242 1041 1266 1837 1666 1439 1011 865 945 764 450 493 515 565 741 980 1007 873 793 1090 1110 1342 1370 942 432 394 537 543 544 524 539 506 608 537 470 443 284 111 87 85 75 61 50 47 44 34 12 15 3 1 0 2 2 2
1444 1689 1668 1855 1838 1982 2263 2086 2033 2233 2390 2338 2301 2213 2240 2142 2102 1928 1677 1155 1695 1874 1903 2079 2145 2212 2136 1944 2001 1786 1355 1435 1644 1700 1667 1496 1584 1425 1024 954 749 639 364 473 507 756 773 972 1072 1196 1214 1134 1215 1156 805 501 500 614 623 583 633 631 558 417 309 357 354 321 172 88 81 90 44 37 42 56 57 30 29 7 1 0 1 1 1
1433 1510 1821 2027 1876 2054 2258 2065 2045 2513 2439 2625 2347 1950 2078 2119 2148 1516 1649 1328 1223 1909 1991 2140 1973 2023 2175 2244 2166 1636 1534 1536 1029 930 1199 1535 1450 1616 1243 936 701 706 410 470 422 637 836 1080 1099 1056 1077 1144 1066 1052 744 516 550 712 698 696 574 584 487 313 316 400 357 347 185 126 96 60 42 25 34 62 67 49 24 16 0 1 1 1 1
1421 1398 1741 1903 1869 2107 2276 2064 2120 2510 2577 2623 2137 1564 1588 2039 2130 2074 1803 1634 1798 1910 1964 2014 2129 2050 2160 2178 1966 1873 1520 1522 1390 1471 1606 1659 1702 1602 1582 932 755 691 708 466 390 573 803 936 1015 1054 1165 1121 1108 936 703 400 512 698 770 755 626 545 461 354 368 392 328 285 114 181 53 33 26 47 54 27 38 40 22 4 0 0 1 1 1
1479 1560 1497 1746 1853 2077 2177 1976 2541 2718 2706 2520 2092 1972 1339 1805 2175 2141 2043 1828 1897 2052 2488 2153 2116 1871 1837 1914 1941 1738 1670 1637 1403 1638 1533 1801 1860 1996 1668 1264 796 728 717 589 482 487 670 813 791 804 744 836 818 867 739 492 567 839 884 870 620 532 413 450 331 351 348 323 179 17 44 60 182 252 400 122 38 19 9 42 46 39 11 2 0
1634 1597 1504 1682 1756 1876 2243 2399 2453 2390 2495 2318 2266 2248 2353 2439 2446 2400 2319 2248 2151 2289 2322 2204 2023 2027 1995 2053 1840 1701 1556 1210 1509 955 1402 1659 1837 2018 1681 1482 875 643 788 687 656 489 527 636 745 794 807 715 738 783 704 546 663 672 823 788 646 586 532 622 618 378 245 242 219 102 135 221 402 1004 1003 520 300 233 154 118 64 100 14 0 0
1634 1663 1405 1530 1544 2006 2227 2244 2419 2469 2391 2220 2291 2449 2542 2552 2372 2452 2618 2235 2076 2152 2208 2272 2081 2076 2098 2053 1929 1818 1639 1582 1772 1268 1547 1620 1728 1654 1634 1478 855 660 685 675 639 562 524 589 693 871 725 716 811 687 513 244 396 557 760 772 723 467 536 725 649 470 387 310 176 150 154 101 1088 1331 1062 940 802 598 354 178 103 116 60 0 5
1574 1611 1347 1426 1532 1942 2042 2091 2326 2508 2546 2490 2487 2514 2282 2049 1907 1844 1958 1929 2025 2177 2145 2218 2119 2125 2127 1986 1887 1805 1763 1745 1881 1702 1525 1843 1827 1708 1764 1825 1592 884 591 807 746 618 593 568 989 1087 1058 878 877 945 738 633 601 715 829 719 725 701 857 868 915 774 500 255 186 155 239 293 697 1124 985 881 740 605 645 409 573 180 91 10 46
1461 1578 1468 1330 1404 1618 1651 1584 1573 2164 2338 2429 2393 1962 1883 1997 1718 1817 1743 1805 2044 2186 2125 2279 2288 2287 2294 2118 1920 1731 1841 1787 1600 1642 1538 1682 1727 1610 1718 1822 1697 1685 946 817 1002 717 618 545 762 983 743 750 870 914 882 834 570 790 838 791 872 876 908 962 912 820 588 273 223 274 309 719 693 638 640 706 643 624 351 184 222 222 427 116 131
1568 1331 1477 1341 1409 1494 1592 1652 1718 1655 1817 1654 1892 1926 1857 1648 1632 1564 1772 2283 2388 2405 2257 2186 2292 2288 2067 2007 2129 2183 2017 1839 1655 1677 1527 1620 1523 1597 1716 1827 1736 1796 1612 752 852 760 604 512 580 581 864 731 672 629 622 630 684 645 676 779 884 839 920 779 941 946 584 350 201 360 497 766 799 920 738 500 780 646 514 370 297 92 259 147 336
1526 1423 1313 1295 1247 1445 1568 1682 1619 1684 1745 1721 1756 1565 1553 1559 1602 1475 1906 2166 2334 2244 2332 2175 2086 2060 1996 1942 2121 2251 2220 1955 1709 1592 1713 1110 1281 1520 1672 1753 1796 1803 1604 1377 1090 842 915 785 621 590 689 917 787 753 699 773 780 782 756 836 862 865 1006 1022 965 995 744 367 318 396 485 695 807 780 712 660 640 830 485 366 430 330 266 238 420
1423 1317 1270 1239 1264 1287 1400 1463 1552 1751 1743 1752 1628 1675 1631 1638 1676 1587 1619 2045 2104 2023 2123 2139 2005 1980 1857 1836 2070 2154 2103 2122 1920 1774 1832 1198 1454 1574 1676 1700 1959 1733 1635 1709 1522 1045 1170 1133 874 781 762 1277 1205 1225 1171 1324 1144 772 674 918 940 1038 1314 1136 1025 957 787 600 603 403 716 693 756 466 510 725 629 636 645 564 518 497 412 274 380
1514 1414 1336 1224 1165 1154 1409 1416 1352 1434 1486 1468 1557 1642 1614 1653 1773 1837 1949 2063 2194 2059 1907 1878 1860 2015 1675 1592 1928 2190 2153 1924 2030 1918 1868 1680 1641 1702 1596 1772 1716 1699 1634 1611 1480 1108 1268 1354 1393 1287 1178 1298 1114 1196 1398 1276 1286 1084 889 896 1282 1465 966 990 997 895 643 669 603 614 782 924 1022 932 824 1003 900 978 938 368 341 617 606 546 442
1754 1721 1626 1619 1483 1282 1162 1163 1304 1395 1416 1419 1465 1475 1546 1497 1744 1846 2033 2180 2224 1813 1959 1932 1621 1850 1984 1644 1294 1064 1245 1939 1884 1775 1652 1663 1591 1581 1536 1488 1475 1580 1632 1451 1337 1301 1357 1326 1312 1489 1560 1376 1097 1387 1262 1188 1041 1165 1112 1347 1449 1381 965 977 1000 992 837 745 608 696 908 894 887 791 991 1050 845 785 524 504 518 326 513 595 655
1666 1794 1742 1677 1462 1352 1434 1403 1432 1450 1275 1570 1592 1540 1677 1609 1551 1831 1942 2289 2196 1560 1743 2038 1865 1459 1695 1762 1411 1235 1111 1570 1644 1236 1158 1048 1186 1294 1608 1445 1386 1491 1416 1473 1348 1220 1568 1671 1527 1362 1440 1326 1246 1161 1164 918 888 1128 1044 1375 1368 1032 981 874 777 1056 972 862 825 736 749 751 740 832 965 619 415 366 437 218 338 518 693 563 718
1958 1875 1776 1816 1686 1499 1454 1497 1468 1416 1548 1575 1624 1988 2034 2048 1982 2005 2170 2154 2037 1553 1517 1750 1725 1667 1635 1398 1195 1182 1115 1274 1268 1260 1310 1218 1164 1007 1222 1174 1178 1243 1126 1168 1455 1699 1688 1219 1359 877 1133 1215 1232 1302 1112 851 870 954 1088 1097 935 764 737 661 381 756 944 746 862 768 558 604 652 819 756 512 250 296 479 596 424 302 299 626 829
1948 1946 1866 1804 1778 1661 1593 1598 1445 1210 1419 1512 1683 1856 2000 2058 2086 2058 2200 2139 1964 1610 1632 1687 1786 1670 1745 1671 1268 1056 1077 981 1147 1196 1275 1193 1194 1506 1295 1302 1080 1082 1298 796 1191 1171 765 951 1100 533 584 1091 1050 963 818 921 678 472 414 505 298 416 767 762 840 908 992 716 805 778 866 724 647 974 721 248 396 467 633 561 622 640 574 792 985
2006 1905 1890 1853 1769 1672 1641 1562 1288 1217 1228 1387 1429 1577 1638 1758 2081 2102 2061 2223 1984 1834 1853 1804 1819 1636 1455 1449 1365 1204 1067 953 1088 1193 1210 1218 1228 1093 1383 1199 1176 1116 822 705 1068 407 399 314 795 788 418 934 1054 1093 1021 1147 751 491 276 274 266 290 369 651 734 600 889 961 1062 946 646 618 476 765 609 395 381 640 657 496 853 1022 1047 1056 1017
1771 1714 1846 1844 1770 1556 1676 1469 1210 1300 1452 1273 1584 1646 1490 1493 1809 2059 2042 1918 2001 2071 2004 1521 1719 1564 1301 1292 1295 1320 1089 1052 1077 1074 1026 1008 1158 987 780 646 833 1027 744 1043 911 811 312 227 489 813 791 611 717 752 1110 1136 1300 635 458 480 393 431 469 497 599 572 763 636 1166 726 625 392 509 448 525 432 444 682 708 412 929 1264 1150 1004 876
1709 1675 1606 1618 1631 1821 1663 1470 1383 1437 1440 1543 1456 1486 1620 1577 1731 1785 1599 1936 2045 1864 1882 1760 1777 1687 1329 1418 1528 1355 1196 1138 1218 1240 798 905 967 1010 1052 780 632 718 463 778 678 370 364 278 185 405 670 779 347 570 718 1257 728 1200 595 456 82 73 46 232 383 631 576 706 919 727 486 510 455 575 590 490 571 748 530 246 810 1057 817 630 420
1599 1398 1329 1323 1386 1385 1369 1279 1622 1936 1868 2017 1958 2042 1807 1808 1619 1751 1958 1944 2004 1903 1638 1636 1706 1610 1509 1512 1418 1324 1308 1256 1167 890 881 986 1048 989 968 693 715 723 471 418 366 378 372 296 372 444 274 424 626 407 512 323 469 277 427 221 264 164 161 599 414 261 509 666 675 469 502 629 687 639 567 427 476 517 284 256 678 839 503 270 186
1360 1303 1203 1218 1255 1235 1167 999 1182 1405 1683 2395 2273 2172 1995 2001 1861 1997 1903 1940 1982 2102 2038 1805 1811 1722 1534 1470 1609 1429 1237 1216 1033 992 999 1030 979 955 908 777 647 518 391 352 344 632 358 411 660 293 216 185 317 349 284 516 545 320 422 355 306 262 758 750 463 570 294 395 549 701 457 390 412 389 324 327 410 569 353 354 319 236 373 299 135
1271 1132 1065 1113 1122 1030 931 846 837 1029 1183 1236 1633 1708 1792 1819 1842 2046 2029 2182 2209 1929 1857 1774 1671 1447 1543 1518 1528 1387 1296 1155 1105 1059 1134 1191 1044 1076 897 701 685 606 579 286 372 828 686 875 350 356 321 434 496 396 390 235 266 325 410 472 405 216 728 852 160 635 446 276 135 484 143 248 422 568 274 260 374 608 253 276 256 159 325 234 136
1125 1124 1006 1031 991 909 823 807 892 1000 1087 964 1092 1366 1547 1677 1573 1745 1880 1619 1680 1726 1591 1624 1604 1591 1643 1538 1385 1336 1274 1232 1148 1169 1148 1126 1068 1062 787 638 759 568 465 357 348 287 350 477 320 193 578 503 383 694 406 706 609 379 299 399 207 533 198 538 1005 1091 570 634 246 117 122 514 466 345 405 312 313 590 336 243 342 324 304 203 98
998 1126 1042 1075 1086 1009 949 981 1090 1160 1051 906 921 1153 1406 1440 1464 1558 1586 1440 1570 1414 1581 1615 1868 1790 1566 1490 1600 1530 1244 1132 1176 1158 1168 1172 1178 1079 795 708 732 666 555 597 462 264 195 250 273 501 316 220 380 188 329 560 584 496 722 327 168 513 881 286 391 374 662 290 109 306 598 423 82 155 871 426 522 608 535 377 331 334 366 286 92
677 837 978 1017 1061 1090 1145 1188 1106 989 880 858 847 840 980 1184 1304 1513 1528 1438 1474 1539 1506 1617 1689 1815 1714 1518 1436 1376 1306 1216 1129 1361 1144 1067 1096 981 990 751 707 682 772 832 916 775 582 281 635 217 181 466 1012 679 489 484 561 812 335 277 981 799 448 202 590 600 558 109 290 571 516 454 445 776 244 445 508 586 635 551 351 370 235 279 19
Wind_Speed
32 35 35 34 30 32 33 33 33 33 33 31 32 31 31 32 31 31 32 32 33 33 34 33 32 32 31 29 28 28 29 29 28 27 26 24 24 24 23 21 21 21 22 22 23 23 23 23 23 23 22 19 19 18 19 18 17 18 19 19 18 17 16 15 14 14 14 13 12 12 10 8 8 9 9 8 7 7 5 4 6 7 7 8 10
34 35 33 32 30 31 33 34 34 32 32 32 31 31 31 31 30 31 32 33 33 32 32 31 31 31 29 28 28 28 29 29 28 26 25 25 25 25 23 24 23 22 23 23 24 24 24 24 24 24 22 21 19 19 19 19 19 19 20 18 19 18 16 15 14 13 12 12 12 12 12 12 10 11 11 10 8 8 8 9 7 6 6 10 12
34 34 31 33 32 31 32 34 34 33 32 32 31 31 31 31 32 33 32 33 32 32 31 30 29 30 29 28 28 28 28 29 29 28 28 27 26 26 24 24 23 22 23 24 25 24 25 25 25 24 22 21 20 19 19 20 20 20 21 20 19 18 16 15 14 14 13 12 12 14 14 14 13 12 11 9 8 9 10 9 9 9 7 11 10
33 30 30 32 31 29 32 32 34 34 33 32 31 32 32 32 32 32 33 32 31 31 30 29 29 28 26 26 26 27 30 30 30 29 28 28 27 26 25 24 23 23 23 24 25 25 25 25 26 25 24 22 20 19 19 20 20 19 19 20 20 18 15 12 10 10 11 12 11 9 6 7 9 11 9 8 8 9 10 11 12 11 11 11 11
30 29 29 29 30 29 30 31 32 33 33 33 33 34 34 33 33 33 32 32 31 30 30 30 29 28 26 26 28 27 26 29 30 30 29 27 26 27 25 25 23 23 23 24 24 25 24 25 24 24 23 21 19 18 19 19 20 20 20 19 18 17 15 13 10 8 8 9 10 7 4 5 6 8 7 8 10 11 12 12 12 13 13 14 14
28 27 27 27 29 30 30 30 32 33 33 34 34 35 35 35 34 33 32 31 30 30 29 29 29 28 27 28 28 27 25 26 29 29 28 28 27 28 26 24 22 22 23 24 23 23 23 22 22 23 22 20 18 18 18 19 19 19 18 17 16 14 12 10 8 6 4 5 13 1 3 4 nan 5 8 10 11 11 12 12 12 13 14 16 16
28 26 26 27 26 29 29 30 32 33 33 34 35 35 34 34 33 32 31 30 29 29 29 29 29 28 28 29 29 28 26 25 26 27 28 27 27 29 28 24 21 22 23 23 22 22 21 21 22 22 21 20 19 19 19 18 18 17 17 16 15 13 11 9 7 4 5 9 3 2 3 nan nan 6 12 11 12 11 12 13 13 12 12 13 15
24 23 25 26 25 29 27 29 31 33 33 34 34 34 35 34 34 32 31 30 28 28 29 29 27 28 29 29 29 29 28 26 26 24 28 29 27 29 29 27 22 21 23 23 21 20 19 19 19 21 20 20 19 18 17 16 16 17 17 17 16 13 11 8 6 1 8 2 2 4 4 6 7 7 9 10 11 11 12 13 12 12 11 13 13
23 24 23 24 25 30 27 29 31 33 33 34 34 35 35 34 33 33 31 29 28 28 28 28 28 29 29 30 30 29 28 27 25 25 25 28 28 27 28 25 20 18 19 21 19 19 18 18 18 19 19 19 18 17 16 15 16 17 18 18 16 14 11 10 10 11 nan nan nan 6 7 7 8 8 9 9 nan 12 12 13 15 15 nan 14 15
22 22 21 22 25 29 28 29 30 33 34 35 35 36 35 34 33 33 31 29 29 28 28 28 28 29 30 30 30 30 28 26 24 25 26 27 26 25 24 23 21 18 19 20 20 19 17 17 17 17 18 19 17 16 15 15 16 17 18 18 16 14 12 12 13 7 8 8 8 9 8 nan nan nan nan 11 12 15 17 20 18 16 16 17 19
21 20 21 22 29 27 28 29 30 33 35 35 36 35 36 35 33 32 30 29 28 28 28 28 29 29 30 30 30 28 28 26 26 28 29 29 29 27 25 24 20 18 18 18 18 17 16 16 17 17 18 19 18 16 14 15 16 17 17 17 16 14 12 11 12 10 10 nan 12 11 11 10 10 11 13 13 14 16 16 16 16 17 19 20 20
22 22 21 23 30 27 28 30 31 33 35 35 34 35 35 35 33 31 30 29 28 29 28 28 29 30 31 31 31 30 29 28 28 29 31 31 31 30 28 25 21 17 16 18 17 17 16 17 18 18 19 18 18 17 15 14 15 16 17 17 14 12 12 12 9 10 10 11 12 11 13 14 14 14 16 16 16 17 18 19 20 21 21 21 21
22 22 23 27 28 27 28 30 32 33 33 35 34 34 35 34 32 29 27 26 26 26 26 27 27 28 29 31 32 31 30 29 30 31 32 31 31 31 29 26 22 17 16 17 17 17 17 17 19 19 19 18 18 17 16 15 14 16 16 15 13 12 11 11 12 10 10 12 12 13 13 13 14 16 16 17 17 17 17 18 20 20 21 21 20
22 23 25 27 26 30 28 30 31 33 33 33 32 32 32 31 30 27 26 25 25 26 25 26 26 26 28 29 30 30 31 31 31 32 33 33 32 31 30 27 23 18 15 16 17 17 17 18 20 20 19 18 18 18 18 17 16 15 16 14 12 11 11 11 12 11 11 11 12 13 13 12 13 14 14 16 15 16 17 17 18 19 20 21 20
23 25 26 27 29 30 33 30 31 32 31 31 30 29 29 28 27 25 25 24 25 26 26 25 26 26 30 32 32 32 31 32 33 34 34 34 33 32 29 27 24 18 14 15 16 17 18 18 19 20 20 19 18 18 18 18 17 17 16 14 12 11 11 12 11 12 13 12 12 13 13 12 13 13 14 15 15 16 16 17 18 18 19 20 20
25 26 27 28 30 30 32 33 31 30 30 29 28 28 27 27 26 25 24 24 25 27 26 26 25 26 29 30 31 31 31 33 35 35 33 33 32 31 28 26 24 20 15 14 16 16 18 19 19 20 20 19 18 18 19 19 18 17 15 13 11 7 3 9 11 12 12 12 12 14 14 14 12 14 15 16 16 16 16 16 17 17 18 20 21
26 27 27 28 29 30 30 33 32 30 28 26 26 26 25 25 25 25 25 24 25 26 26 25 25 26 28 28 29 29 32 34 35 35 33 32 31 29 28 25 23 21 17 13 14 15 16 19 20 20 19 19 19 18 19 20 20 18 17 14 11 8 6 6 12 12 12 13 14 14 14 14 17 17 16 16 16 17 17 17 18 19 19 20 nan
25 25 25 27 28 28 29 30 32 29 29 25 23 22 23 23 24 24 24 24 24 24 25 24 24 25 27 27 28 30 33 34 35 34 33 31 30 28 26 23 21 21 18 14 12 13 15 17 20 20 19 18 19 19 19 21 20 19 17 16 13 9 9 8 12 12 13 13 14 15 15 18 17 18 19 19 19 19 18 18 nan nan nan nan nan
25 23 24 25 26 27 29 29 30 28 28 22 21 21 21 23 23 24 24 24 23 24 24 24 24 26 27 27 29 32 34 36 36 35 33 31 28 26 24 22 19 19 18 16 13 12 14 17 19 20 19 19 18 19 20 21 20 18 17 17 15 12 11 11 12 13 14 13 14 15 16 17 19 20 20 20 19 nan nan nan 20 21 22 nan nan
25 22 24 24 27 25 28 28 27 26 24 22 21 21 22 22 23 24 24 23 22 23 23 24 26 27 26 28 30 32 35 35 37 34 34 31 27 23 23 21 18 17 17 17 15 13 14 18 21 20 20 19 19 19 21 21 20 18 18 19 17 17 12 12 13 12 12 12 14 15 18 18 20 20 21 21 20 nan 20 nan nan nan nan nan nan
23 25 24 25 26 29 28 26 24 24 23 21 20 21 23 22 22 23 23 22 22 22 24 25 25 26 26 26 26 27 32 33 33 32 34 29 26 25 22 20 18 17 17 17 16 16 16 18 22 21 20 21 19 21 21 20 20 18 19 18 17 12 13 13 13 14 14 15 16 16 17 18 nan nan 21 nan nan nan nan nan nan nan nan nan nan
22 24 25 26 25 28 26 25 21 24 23 19 19 20 22 21 22 22 21 22 22 23 23 23 24 25 25 27 26 27 28 30 31 33 29 30 27 25 23 20 19 18 17 17 17 18 19 19 21 23 23 22 22 18 20 19 18 18 18 19 12 13 13 14 13 14 15 15 17 18 17 nan nan nan nan nan nan nan nan nan nan nan nan nan nan
22 23 23 25 25 25 27 27 25 26 24 20 19 20 22 21 22 21 19 20 23 22 22 22 23 25 26 27 26 23 25 27 29 29 28 29 28 27 24 21 20 18 18 18 18 19 21 22 23 24 24 24 18 16 18 18 16 16 17 15 13 13 16 15 15 14 15 17 17 nan nan nan nan nan nan nan nan nan nan nan nan nan nan nan nan
23 24 23 23 24 25 25 26 27 27 23 20 19 20 21 21 21 20 20 20 22 21 21 22 23 25 26 26 27 25 18 26 27 29 31 29 28 28 25 23 21 18 18 18 20 20 22 23 23 25 22 19 17 16 16 17 17 14 13 15 16 17 16 15 15 15 16 18 19 nan nan nan nan nan nan nan nan nan nan nan nan nan nan nan nan
23 23 22 22 24 24 25 26 26 26 23 21 19 20 22 19 20 21 21 22 22 22 21 20 23 26 26 25 24 20 21 26 22 22 24 27 27 25 23 19 18 18 15 18 17 20 19 21 22 21 19 17 19 17 16 17 16 15 14 15 18 17 16 15 15 16 17 18 19 nan nan nan nan nan nan nan nan nan nan nan nan nan nan nan nan
22 20 21 21 22 23 23 24 26 26 25 21 19 21 21 22 21 21 22 22 23 23 23 23 25 26 24 25 26 23 23 25 23 19 25 25 23 22 21 18 18 19 15 17 17 19 18 20 22 21 19 20 20 19 19 17 17 17 17 17 18 17 16 17 16 16 17 18 19 nan nan nan nan nan nan nan nan nan nan nan nan nan nan nan nan
20 19 20 20 22 23 22 23 23 24 25 22 21 21 21 22 24 22 22 23 22 24 24 24 26 27 24 23 24 24 22 23 21 22 22 24 23 21 20 19 18 19 17 17 18 19 18 20 21 21 21 22 22 22 21 20 19 19 19 18 18 17 17 18 17 17 17 19 20 nan nan nan nan nan nan nan nan nan nan nan nan nan nan nan nan
18 19 20 20 21 23 23 23 22 24 25 24 21 22 20 23 24 22 21 24 22 23 23 25 26 25 23 23 22 21 22 21 21 18 18 22 22 21 20 18 19 19 19 17 19 19 20 21 22 22 22 23 24 24 22 21 21 20 20 20 18 17 17 17 18 18 17 17 18 19 nan nan nan nan nan nan nan nan nan nan nan nan nan nan nan
19 19 20 21 21 23 22 23 24 24 25 23 21 21 19 20 20 20 21 21 20 21 23 24 23 23 22 21 21 20 20 20 20 20 21 21 21 21 20 20 19 20 19 18 19 20 22 22 24 24 22 24 24 23 22 21 21 21 22 20 19 21 19 19 20 20 17 17 17 20 nan nan nan nan nan nan nan nan nan nan nan nan nan nan nan
19 20 20 21 21 23 21 23 23 24 24 23 21 20 20 17 18 19 18 19 20 22 24 23 22 20 20 19 20 19 18 20 19 20 22 21 20 19 20 20 19 20 19 19 20 21 23 24 25 25 25 24 24 22 21 21 21 24 23 22 21 21 18 20 20 21 19 17 18 nan nan nan 12 10 14 21 nan nan nan nan nan nan nan nan nan
18 20 21 22 22 22 22 21 23 23 23 23 22 19 18 19 18 18 19 20 24 24 24 22 20 18 19 20 19 19 19 18 20 16 19 21 20 19 19 19 18 19 19 20 20 21 23 25 26 27 26 24 23 23 19 20 22 25 24 21 20 21 19 19 21 22 20 18 18 17 17 13 13 12 14 22 21 20 20 20 nan 21 nan nan nan
18 20 21 23 23 21 20 21 22 23 23 23 22 19 18 17 18 20 21 22 24 24 23 21 19 19 19 20 19 18 18 18 18 19 20 20 20 19 18 17 17 18 19 19 20 21 22 24 26 27 25 23 23 23 20 21 23 23 21 20 21 21 20 21 22 21 20 20 18 17 17 17 19 22 25 23 21 18 18 19 20 20 nan nan nan
21 21 23 23 22 20 19 20 21 23 23 23 22 20 17 17 17 19 21 21 22 22 21 20 20 20 20 20 19 17 18 18 19 17 19 18 19 18 16 17 17 18 18 18 18 20 21 23 25 27 26 24 23 24 21 21 22 21 20 20 20 20 21 22 22 21 20 19 17 18 17 18 19 24 25 22 21 18 18 16 14 16 nan nan nan
22 24 25 23 21 20 18 19 19 22 23 23 22 20 18 18 18 19 19 20 21 21 21 20 20 20 21 20 17 15 15 16 18 17 16 17 18 17 16 16 17 19 18 18 17 19 20 22 24 25 26 24 23 24 23 22 22 20 19 19 19 20 20 21 20 20 19 18 17 17 18 18 17 17 19 24 21 20 19 17 17 12 13 17 17
22 24 24 24 23 20 19 18 19 20 23 22 21 19 19 18 18 19 20 20 20 20 20 20 19 19 19 18 15 15 14 14 16 16 15 15 17 16 16 16 17 19 19 18 17 19 20 22 24 24 25 23 23 23 22 23 22 20 19 18 18 19 19 19 19 19 19 19 17 19 18 18 17 16 18 17 21 22 21 20 19 nan 15 13 13
22 24 24 23 22 21 20 19 21 20 20 19 16 15 17 17 19 21 20 19 18 18 18 17 18 18 17 15 15 14 15 13 13 14 15 13 14 15 16 17 17 18 18 19 18 19 20 22 23 23 24 22 22 22 22 23 22 20 19 18 17 17 18 19 19 18 20 19 18 21 18 17 16 16 15 14 17 20 23 22 19 19 16 14 12
25 24 24 22 21 21 20 19 20 21 19 16 13 13 15 16 18 20 19 18 19 18 17 16 17 17 16 13 13 14 14 15 13 13 13 13 14 15 17 18 17 17 18 18 18 18 21 21 21 22 23 23 22 21 21 22 22 19 17 17 17 16 18 19 18 18 19 17 20 20 17 16 17 18 15 13 17 20 22 21 17 17 17 14 13
27 26 25 23 21 18 19 18 19 18 17 15 14 14 14 14 16 19 19 20 20 19 17 15 15 16 14 12 11 11 13 14 13 13 13 13 14 15 16 18 17 17 17 18 17 18 21 22 23 22 22 21 20 20 21 21 20 18 17 18 18 18 19 18 18 17 17 19 19 18 16 17 17 16 16 15 14 16 18 19 18 16 16 14 13
27 27 25 23 20 18 17 18 17 15 16 15 15 16 15 14 17 18 22 24 23 21 17 13 14 16 16 14 11 12 10 14 15 15 15 15 15 15 16 16 17 18 18 18 19 19 20 22 23 24 23 21 19 21 22 21 18 18 19 20 19 20 19 17 16 16 16 18 18 17 16 17 17 16 17 16 15 15 15 15 15 13 16 15 14
27 26 26 23 21 19 18 18 17 15 14 14 15 17 18 18 19 21 22 25 26 25 18 16 17 17 19 17 16 18 16 15 17 17 17 17 17 16 16 17 17 18 18 18 18 19 20 23 25 27 26 22 20 22 23 22 20 20 21 21 20 20 18 17 15 16 16 17 16 16 17 18 16 17 16 15 14 15 14 13 10 12 14 16 14
27 26 26 26 23 21 20 18 17 16 16 16 16 17 17 19 20 20 21 24 24 25 19 16 17 20 20 16 16 19 20 21 20 18 18 17 17 18 17 17 18 18 19 19 17 18 19 20 25 28 27 25 22 23 24 23 22 22 22 22 22 22 18 16 15 14 15 15 16 17 18 18 16 16 16 14 15 15 13 11 11 11 12 15 14
27 25 24 23 23 22 21 20 19 18 17 17 17 17 17 18 19 20 22 23 24 23 21 18 20 23 23 19 17 19 20 21 22 21 19 17 17 19 19 18 18 18 19 18 18 21 18 19 25 27 25 26 23 23 23 21 21 21 22 22 21 20 19 16 15 14 14 15 16 17 19 18 16 16 14 14 14 14 12 12 11 12 12 13 14
28 25 23 22 21 20 18 18 17 17 18 18 18 18 19 18 19 21 22 24 23 21 21 21 24 25 26 24 21 19 18 19 22 25 24 22 20 19 21 20 19 21 21 18 22 21 18 20 25 26 27 25 24 21 20 17 20 19 19 19 19 18 18 17 18 14 15 15 15 16 17 16 14 14 13 12 13 11 10 13 14 14 14 14 15
27 26 24 23 20 18 18 17 16 15 16 17 17 19 17 19 19 20 20 20 22 23 21 21 22 26 26 27 26 24 20 20 21 24 25 24 23 20 20 20 21 22 22 21 22 22 20 19 21 21 25 26 22 18 17 15 16 19 16 16 20 17 15 16 20 17 16 14 14 14 14 13 10 12 12 10 12 10 11 14 15 15 15 15 15
26 25 25 23 20 21 20 17 15 14 15 15 16 17 20 19 20 20 20 20 21 22 23 22 22 25 28 27 27 27 25 22 21 22 23 24 25 23 21 22 22 24 24 22 22 21 20 20 22 19 18 22 22 18 16 17 17 19 24 25 nan nan nan 17 21 20 17 15 13 12 13 13 11 11 11 10 11 11 11 15 16 15 16 16 16
26 26 25 23 21 20 18 18 18 15 15 15 14 17 20 20 20 20 22 22 22 24 24 24 25 25 27 29 26 27 27 26 24 24 25 26 27 26 23 22 24 24 25 22 19 19 19 18 22 20 16 15 20 20 19 18 18 21 26 25 21 18 17 22 22 20 19 16 15 12 13 12 13 13 10 12 11 13 12 15 15 15 14 14 15
26 24 23 22 21 19 18 17 17 17 17 17 17 19 19 19 19 19 20 22 22 23 25 27 27 28 30 32 31 29 27 27 26 25 26 26 27 28 27 24 22 22 23 23 21 21 19 19 23 20 17 17 19 21 20 21 21 20 23 23 19 18 21 20 18 23 19 17 13 14 11 13 14 11 13 13 13 14 13 14 14 14 14 13 14
25 24 22 20 20 21 19 18 18 18 18 17 17 17 16 16 16 18 20 21 21 21 23 25 29 30 31 34 35 33 29 28 28 26 24 25 26 29 30 27 24 21 23 22 21 21 21 21 22 20 18 19 21 24 24 21 20 19 22 23 17 15 21 21 16 17 16 16 15 14 9 11 14 13 12 12 14 15 13 13 13 14 13 14 14
25 23 22 21 20 20 21 20 22 22 21 19 17 17 16 16 17 18 19 21 22 23 24 26 30 32 32 34 35 33 30 29 28 27 25 26 27 29 30 27 26 23 24 22 21 21 22 21 21 20 19 16 15 21 23 20 20 18 20 16 15 14 14 16 14 15 15 16 16 14 12 15 13 13 11 11 12 15 13 12 13 14 15 14 nan
26 25 24 22 22 22 23 24 24 23 23 21 21 19 19 19 18 19 18 21 23 25 26 27 29 32 32 31 32 32 31 31 30 28 28 28 28 28 28 28 25 23 22 22 23 23 22 21 21 20 18 15 12 13 14 14 14 12 12 13 10 11 15 12 10 16 13 16 14 13 14 15 nan 11 13 10 11 13 12 13 14 14 15 14 nan
28 27 26 24 24 24 24 25 24 23 23 23 21 21 21 22 21 19 18 19 21 23 25 26 27 29 31 31 29 29 31 31 30 29 29 29 28 26 26 26 24 21 20 21 22 22 22 21 23 20 14 14 12 11 11 11 11 9 7 7 10 12 12 9 10 14 13 13 13 17 13 13 14 15 10 12 12 14 13 14 13 14 15 14 nan
Wind_Direction
315 313 314 311 315 315 313 313 313 314 310 309 309 309 311 313 314 315 317 317 319 319 319 319 320 322 327 328 322 323 326 327 328 331 330 329 330 329 324 319 319 318 314 310 305 306 303 305 305 308 306 302 301 300 295 295 298 301 299 298 295 295 295 289 286 288 286 286 288 280 269 264 248 246 250 249 230 206 183 233 250 241 239 239 241
315 312 311 315 314 313 313 314 314 312 310 308 308 309 311 312 313 315 316 317 318 318 317 317 319 322 326 324 322 326 325 323 323 325 329 331 331 325 324 323 320 316 310 308 306 306 307 305 306 309 309 307 303 298 300 303 304 301 300 295 294 292 290 289 287 290 290 285 280 275 267 260 255 251 251 242 229 221 209 204 209 248 245 245 242
311 310 313 315 315 313 314 314 314 312 311 309 310 311 312 313 315 315 316 317 316 316 315 317 319 322 325 323 324 326 321 321 324 326 329 330 328 326 326 323 320 315 309 307 308 307 306 308 309 308 308 304 301 300 301 302 303 304 301 297 292 290 290 292 292 290 293 290 285 276 270 262 249 243 245 248 250 244 230 228 238 241 250 253 255
309 311 312 313 314 314 315 314 313 313 312 312 312 313 312 313 314 315 315 315 314 313 314 315 316 321 323 321 323 324 322 322 322 324 326 328 331 326 327 322 319 314 309 307 306 307 309 310 311 312 310 307 303 302 302 302 303 301 296 295 296 296 298 301 302 301 307 305 305 298 268 258 252 244 250 258 263 263 260 259 257 257 264 255 254
309 311 311 315 316 315 316 315 313 313 313 314 314 314 313 312 313 313 314 312 312 313 313 313 316 320 320 318 320 320 322 323 324 327 328 330 330 328 327 322 317 312 308 305 305 308 311 311 311 311 308 303 302 301 301 303 303 301 298 295 295 297 300 304 307 306 315 347 2 8 278 262 251 255 271 275 272 270 268 263 260 262 260 257 249
307 309 313 317 319 319 316 315 315 314 315 315 315 314 312 311 311 311 310 309 311 312 312 313 315 319 319 317 318 319 322 322 323 323 326 329 338 330 329 322 313 309 306 303 304 308 310 310 311 311 309 305 301 304 307 307 305 304 300 297 296 296 293 294 292 292 320 35 54 260 270 266 nan 288 269 271 271 266 270 265 265 267 269 268 261
310 310 317 319 319 321 318 316 316 316 316 315 314 312 310 309 309 308 307 308 310 311 311 312 316 319 318 316 317 320 322 322 320 325 328 333 337 332 330 326 315 309 307 305 305 310 311 315 315 314 312 307 305 309 312 312 309 305 302 299 297 295 293 292 305 347 50 57 250 250 265 nan nan 299 295 288 280 275 267 263 265 260 254 252 253
309 315 320 318 321 318 318 317 316 316 315 314 311 308 307 307 307 306 306 308 309 310 310 312 316 319 318 315 317 320 322 325 321 321 327 330 335 336 333 327 317 310 309 306 305 308 312 313 313 316 314 309 307 310 314 313 310 308 306 304 301 300 296 295 303 291 97 274 297 271 281 297 298 298 285 282 282 286 277 265 262 261 264 275 273
314 317 319 318 317 318 318 317 316 316 314 312 309 307 306 306 306 306 307 308 308 309 310 312 317 318 316 316 318 319 322 323 321 323 326 332 337 338 333 327 316 303 303 302 303 307 310 315 317 319 319 315 309 310 313 312 312 313 311 311 308 306 313 323 324 0 nan nan nan 307 301 299 299 292 286 288 nan 295 295 295 286 270 nan 255 256
315 316 318 319 321 318 318 317 317 315 313 312 309 307 306 305 305 306 307 307 307 308 309 311 314 315 315 315 316 319 319 315 318 318 318 322 324 325 325 319 314 302 302 304 306 308 311 315 316 317 321 318 312 309 311 310 310 312 312 312 313 318 329 359 16 11 295 295 279 267 263 nan nan nan nan 281 269 256 247 239 241 251 263 266 265
315 316 322 320 320 318 319 318 317 316 314 312 310 308 306 305 305 306 306 307 308 308 309 311 313 313 313 312 311 314 318 318 318 316 315 316 319 324 322 317 310 301 304 308 310 310 310 310 312 314 319 319 314 311 310 309 309 311 316 316 320 331 352 5 21 308 302 nan 298 297 282 282 285 288 283 281 272 264 263 269 272 271 268 267 269
315 318 320 314 314 319 320 320 319 319 316 313 310 309 307 307 306 305 307 308 307 308 309 310 311 312 313 313 314 316 318 320 317 316 317 316 321 323 315 311 310 302 302 310 313 314 311 310 309 313 318 321 317 312 310 309 309 313 317 321 326 344 10 32 327 313 306 290 285 292 297 294 292 287 289 287 285 280 277 275 273 272 270 268 268
318 320 316 313 323 320 324 323 323 321 318 314 311 309 309 308 306 306 307 306 305 305 306 307 310 311 312 312 316 318 318 317 315 315 315 317 320 321 318 315 313 305 302 311 316 317 316 314 312 315 320 321 320 314 310 308 309 311 316 319 332 348 3 17 311 302 297 294 296 291 289 289 289 292 290 291 288 282 279 276 273 270 268 268 268
319 318 319 319 323 324 326 326 325 322 319 315 311 309 307 306 305 304 304 304 303 303 303 305 307 309 306 305 307 309 313 315 316 318 319 321 322 323 321 317 313 305 301 311 316 320 323 321 318 317 321 321 321 318 311 308 308 310 314 317 330 350 352 306 304 301 289 281 276 277 285 290 288 291 294 289 286 286 283 282 278 273 270 269 269
318 319 319 320 324 331 328 327 325 322 318 314 310 306 304 304 302 302 303 302 301 301 303 304 306 304 301 306 307 311 315 316 316 318 321 322 323 323 324 317 311 306 304 311 317 323 328 329 323 320 319 321 321 318 314 310 310 311 313 319 335 355 12 321 315 304 295 293 293 291 282 285 282 292 293 294 290 284 285 283 279 275 271 270 269
317 318 320 323 327 330 332 328 325 321 317 313 309 306 304 302 300 300 300 299 298 301 303 304 304 300 301 305 308 312 314 314 314 316 318 320 320 323 322 318 311 306 307 314 319 325 329 330 328 324 320 318 317 317 314 313 312 312 314 321 338 358 30 320 313 305 298 291 285 282 287 286 290 289 291 291 289 289 285 284 278 274 275 275 276
314 318 321 322 327 332 331 331 326 320 316 312 309 306 303 300 298 297 296 296 297 299 302 303 301 298 300 303 306 309 311 311 311 313 317 317 319 322 323 318 312 307 308 315 318 321 322 328 330 327 322 315 313 313 313 312 312 313 311 312 315 326 356 353 313 309 299 293 297 296 296 298 289 290 289 289 288 286 285 277 275 274 274 276 nan
313 315 318 324 328 332 331 328 325 326 319 313 306 302 300 296 294 293 295 296 296 297 300 300 298 295 298 302 304 307 310 310 310 312 314 316 318 321 323 318 311 305 307 312 313 312 315 322 327 326 323 316 309 309 309 310 311 312 312 309 316 335 332 321 304 303 298 299 292 294 293 290 297 292 292 292 291 287 286 285 nan nan nan nan nan
310 311 318 324 328 329 330 327 327 327 320 315 310 304 296 295 294 295 296 297 296 295 296 294 294 296 300 302 305 309 313 311 310 311 311 313 313 318 321 317 308 302 302 305 306 302 306 314 319 322 324 318 311 306 305 302 305 312 309 310 318 332 344 326 306 306 306 301 296 292 293 299 302 303 299 297 294 nan nan nan 281 278 283 nan nan
304 314 321 325 327 326 327 326 325 325 321 312 306 306 298 294 296 296 296 296 296 293 290 290 293 298 305 307 311 315 313 312 312 312 313 310 316 319 316 313 304 294 294 297 302 299 299 306 311 318 321 316 312 308 307 301 300 304 311 312 327 347 333 306 304 298 293 284 286 291 301 308 303 303 301 299 301 nan 292 nan nan nan nan nan nan
313 318 318 322 327 327 327 323 321 323 319 309 303 303 297 297 296 293 293 292 294 294 292 294 297 303 307 308 308 312 312 310 315 313 313 312 299 302 313 307 298 286 284 288 295 298 298 300 305 308 312 310 309 307 310 310 298 301 309 324 338 335 296 306 308 305 304 305 297 295 300 303 nan nan 300 nan nan nan nan nan nan nan nan nan nan
309 310 314 316 325 320 328 319 317 322 318 306 298 295 297 305 300 300 299 296 295 296 300 302 305 303 311 309 311 310 311 310 313 311 313 306 305 304 305 303 294 282 274 279 287 295 299 295 297 301 304 306 314 312 311 312 306 300 318 333 335 285 301 300 303 301 298 295 295 294 291 nan nan nan nan nan nan nan nan nan nan nan nan nan nan
308 303 307 317 321 320 323 323 326 321 317 306 296 293 299 298 298 298 292 296 294 301 297 298 300 302 307 307 300 300 311 307 308 310 306 304 301 304 301 300 294 282 271 273 280 289 293 294 295 299 301 313 320 303 305 311 309 309 322 333 294 288 286 291 296 298 294 289 291 nan nan nan nan nan nan nan nan nan nan nan nan nan nan nan nan
303 305 310 314 316 316 322 321 321 317 314 302 293 290 291 290 292 292 289 289 292 295 293 295 294 298 297 299 300 311 310 302 301 303 302 305 303 303 301 298 291 282 277 279 278 281 289 292 294 296 303 313 296 301 300 301 301 306 302 299 293 288 292 293 288 287 293 294 288 nan nan nan nan nan nan nan nan nan nan nan nan nan nan nan nan
298 300 304 310 315 315 318 319 317 312 313 299 291 285 284 287 284 287 287 287 288 291 285 284 285 290 294 280 286 295 309 291 299 304 305 304 306 305 304 301 293 285 296 285 289 286 298 298 295 302 299 295 291 288 288 288 286 283 277 279 287 289 284 282 282 289 290 285 284 nan nan nan nan nan nan nan nan nan nan nan nan nan nan nan nan
292 300 305 306 311 314 317 315 315 312 306 294 284 278 280 278 281 282 285 282 285 284 284 281 282 283 283 290 293 299 290 292 303 309 300 300 303 302 300 295 289 285 292 286 287 291 293 295 297 300 294 288 286 285 282 282 281 276 271 270 280 287 283 279 279 285 286 285 287 nan nan nan nan nan nan nan nan nan nan nan nan nan nan nan nan
294 298 300 302 307 311 314 312 308 303 297 287 278 274 273 272 273 278 283 282 275 281 282 280 279 281 281 281 282 287 289 288 295 300 300 297 297 296 292 291 287 284 286 282 286 289 289 289 291 290 288 288 289 286 285 283 277 273 267 267 273 277 279 282 282 286 288 284 281 nan nan nan nan nan nan nan nan nan nan nan nan nan nan nan nan
296 299 299 301 305 309 311 308 299 291 290 286 282 269 269 271 272 276 279 279 283 281 281 279 279 281 282 281 284 289 290 292 287 292 294 295 293 288 286 284 283 281 282 282 286 290 289 287 287 289 290 289 290 289 286 283 278 272 268 263 269 267 264 274 281 284 283 282 285 285 nan nan nan nan nan nan nan nan nan nan nan nan nan nan nan
295 300 299 301 303 304 307 303 294 292 289 287 283 281 267 275 275 278 279 277 280 285 282 282 280 281 281 284 288 288 291 291 296 297 294 291 288 289 285 282 281 280 280 280 283 288 288 288 290 292 290 289 291 290 287 285 278 275 267 262 260 258 261 268 280 288 285 285 285 280 nan nan nan nan nan nan nan nan nan nan nan nan nan nan nan
296 295 298 298 299 300 303 301 296 291 289 287 282 278 273 272 277 276 271 278 282 283 282 280 276 274 278 283 285 287 288 287 293 292 293 290 287 283 280 281 281 279 281 280 282 286 290 290 292 292 291 291 292 289 285 284 279 271 267 262 264 266 268 273 279 283 280 277 275 nan nan nan 269 252 273 295 nan nan nan nan nan nan nan nan nan
291 296 297 294 297 301 300 296 295 292 289 286 281 279 274 275 275 271 272 278 284 281 278 274 273 273 275 278 282 287 289 289 288 282 289 288 283 279 278 278 279 279 278 281 281 285 287 290 291 291 291 293 290 285 282 278 273 272 268 267 265 267 272 272 275 280 281 280 281 283 280 261 257 269 282 293 298 302 309 313 nan 312 nan nan nan
291 293 295 293 297 300 297 294 291 289 285 282 280 280 279 275 273 270 274 279 280 275 272 269 266 266 270 274 277 280 286 285 286 290 286 284 281 278 277 277 277 276 277 279 281 281 284 288 291 289 288 287 284 278 275 273 270 272 270 265 263 269 275 276 278 278 277 279 279 278 278 280 274 275 274 276 278 285 302 310 312 310 nan nan nan
287 287 289 295 299 298 299 294 289 288 284 282 281 280 278 274 270 268 270 273 273 269 264 262 260 261 263 266 269 278 283 286 284 284 283 283 280 279 278 274 273 272 273 278 279 281 283 287 288 285 284 282 281 274 272 272 274 274 269 264 266 273 279 281 278 274 274 277 277 280 276 278 282 280 279 277 278 284 285 285 278 305 nan nan nan
282 291 296 301 297 297 292 287 287 287 284 282 283 281 277 270 262 259 261 262 260 258 257 254 256 256 262 268 275 283 286 286 287 284 281 279 279 278 276 273 271 272 273 275 276 279 283 286 287 285 283 283 278 273 269 267 271 272 268 268 270 276 279 278 275 270 271 276 276 277 276 273 280 286 289 288 289 288 291 294 297 286 295 321 325
281 290 301 302 303 299 291 288 282 282 285 287 286 283 276 266 260 255 253 253 256 258 255 254 255 258 261 270 277 281 285 285 284 283 283 281 281 278 277 273 272 274 274 275 275 278 283 288 289 290 285 283 276 271 271 269 270 272 270 269 271 275 277 276 274 273 273 272 277 275 272 270 275 282 284 287 291 291 293 298 306 nan 314 313 332
285 293 298 304 308 303 298 294 290 282 282 285 283 280 275 266 256 250 252 261 265 266 264 260 257 260 262 265 277 283 283 284 283 281 277 274 278 279 277 275 275 275 276 278 279 281 283 286 291 291 290 287 279 274 273 273 273 274 269 269 269 273 274 272 272 273 272 275 279 277 273 270 277 283 281 291 292 290 295 299 310 327 322 327 325
295 299 303 305 305 302 295 291 288 287 286 281 274 277 277 271 258 246 251 270 278 281 280 273 266 260 260 265 271 280 287 287 286 285 280 277 275 272 273 276 277 277 277 278 280 280 282 283 284 287 288 285 280 275 271 270 271 269 267 270 272 272 268 265 269 270 270 275 274 275 269 270 275 279 290 285 290 299 294 297 303 313 323 326 330
288 292 296 298 296 290 284 280 284 286 285 282 274 271 275 272 255 250 267 279 279 283 284 279 272 269 272 275 277 286 290 289 287 284 281 279 275 277 278 277 280 279 279 279 277 276 279 281 281 279 281 283 279 271 267 269 269 264 261 266 268 267 266 269 270 269 274 276 272 269 266 265 273 284 286 286 284 288 297 305 310 312 312 320 323
288 291 293 293 292 288 284 281 272 276 286 283 274 269 271 273 265 265 280 286 283 284 292 302 298 293 292 292 292 280 284 291 293 295 293 286 284 283 281 284 282 281 277 279 278 279 281 283 286 281 277 281 274 265 260 262 266 265 263 265 265 267 270 272 272 273 271 273 268 263 261 270 278 285 284 284 288 292 296 300 311 314 306 312 323
287 290 288 289 290 287 285 282 279 276 276 277 272 265 263 267 269 275 282 285 288 290 302 312 308 304 305 310 312 302 303 309 311 313 309 304 302 298 294 290 284 281 282 282 285 286 289 288 284 284 282 281 271 260 255 255 257 264 267 266 262 262 267 270 272 271 270 268 263 263 268 271 277 280 283 284 285 286 289 290 291 299 297 302 307
282 283 288 288 287 287 285 279 272 274 275 275 272 267 265 265 266 269 272 276 285 293 300 302 298 295 300 306 306 299 304 314 311 314 309 306 306 301 298 292 287 286 285 286 287 280 280 284 282 280 283 282 273 258 253 253 255 258 263 263 258 256 264 263 259 267 269 260 260 266 270 272 275 280 280 281 281 287 288 288 292 295 297 296 302
276 274 274 282 283 285 286 285 281 280 277 274 274 275 270 265 262 267 271 276 284 291 296 293 289 286 289 294 299 297 301 307 311 313 306 310 310 301 298 295 294 292 288 290 293 284 289 290 286 284 281 279 271 260 253 256 256 259 262 259 254 257 260 263 261 270 265 260 265 270 270 271 273 275 275 281 284 288 289 289 288 287 287 288 290
277 276 280 281 282 285 288 287 282 284 283 280 277 274 277 276 274 272 276 279 283 286 288 284 281 285 292 300 300 297 303 311 317 314 311 314 316 307 297 295 298 292 290 296 290 292 292 292 293 283 271 271 267 256 256 261 257 260 266 262 257 260 264 263 260 256 262 258 264 268 270 274 280 278 279 281 285 282 279 281 283 287 286 284 284
269 266 265 268 271 276 283 283 279 276 270 273 273 275 275 271 276 278 279 278 277 282 281 277 277 283 289 294 298 299 302 305 310 311 311 311 313 315 309 306 303 298 298 298 296 293 297 305 300 282 269 264 258 252 252 260 242 262 260 260 255 253 266 272 261 259 261 265 269 269 271 281 272 291 284 288 283 280 280 283 287 287 284 279 277
264 263 263 262 262 253 251 262 267 271 275 274 272 265 269 273 275 278 277 276 274 273 272 272 272 272 273 281 290 293 296 298 299 303 304 305 308 310 308 306 303 300 301 299 296 299 303 304 305 303 281 256 246 244 253 240 233 230 245 245 nan nan nan 259 268 257 262 265 274 275 275 281 293 291 289 285 284 283 288 291 286 283 283 279 278
258 259 263 263 259 255 251 247 247 250 258 267 263 256 264 272 274 274 275 276 278 280 282 279 279 277 276 277 277 282 287 289 295 298 301 301 304 307 308 306 302 302 305 303 304 301 306 305 300 294 294 258 243 249 254 253 242 235 246 235 224 227 244 259 263 255 263 259 269 281 284 284 286 287 285 289 295 287 290 285 285 283 281 280 274
252 254 258 260 260 261 258 253 253 248 248 251 252 256 259 262 270 272 272 274 274 277 280 282 281 280 279 278 278 278 283 287 291 292 293 297 302 306 306 302 298 301 301 301 302 298 300 297 284 290 297 281 260 251 260 262 255 243 244 239 215 219 234 253 257 252 261 262 261 275 278 285 270 279 293 295 292 282 276 277 283 285 284 278 271
253 255 254 253 250 251 248 250 257 255 252 249 249 253 257 261 264 268 271 273 275 274 276 282 287 290 288 287 283 283 284 284 287 291 290 288 293 299 302 302 297 295 291 296 298 289 288 288 292 294 293 289 272 253 256 261 267 259 252 244 233 222 226 239 244 255 256 271 273 266 269 288 288 285 289 294 294 281 276 274 286 287 285 281 275
256 257 256 254 252 249 247 244 247 250 254 253 257 259 257 252 255 264 269 272 272 273 276 282 290 294 297 294 290 288 290 290 289 289 286 280 283 293 298 301 300 295 293 295 292 291 292 290 297 298 293 294 275 255 257 258 263 266 256 244 235 226 234 233 230 244 251 264 269 283 296 283 269 283 286 285 282 282 283 286 287 285 281 275 nan
263 262 260 259 255 250 246 247 246 249 250 248 253 257 259 262 262 261 267 274 278 280 282 286 291 293 295 294 291 289 288 288 286 283 280 275 277 286 295 299 299 298 296 293 292 292 293 300 297 286 289 299 286 268 265 260 259 248 232 224 222 231 236 237 268 269 255 255 271 296 295 289 nan 280 269 276 285 286 291 288 286 288 281 279 nan
264 261 259 258 256 254 251 250 248 249 248 247 250 255 260 261 265 266 269 272 273 277 284 289 291 290 291 294 294 288 283 284 281 276 276 274 272 277 287 293 292 290 289 292 288 286 290 294 289 285 294 301 282 275 264 249 229 208 207 211 229 243 242 242 258 272 274 288 282 283 285 286 285 274 285 288 279 289 289 283 285 281 279 277 nan